Regional Weather Roundup
Issued by NWS

Home | Current Version | Previous Version | Graphics & Text | Print | Product List | Glossary On
Versions: 1 2 3 4 5 6 7 8 9 10 11 12 13 14 15 16 17 18 19 20 21 22 23 24 25 26 27 28 29 30 31 32 33 34 35 36 37 38 39 40 41 42 43 44 45 46 47 48 49 50
000
ASUS43 KBIS 030510
RWRND

NORTH DAKOTA REGIONAL WEATHER ROUNDUP
NATIONAL WEATHER SERVICE BISMARCK ND
1200 AM CDT SUN MAY 03 2015

NOTE: "FAIR" INDICATES FEW OR NO CLOUDS BELOW 12,000 FEET WITH NO
SIGNIFICANT WEATHER AND/OR OBSTRUCTIONS TO VISIBILITY.


NDZ001>003-009>011-017-030600-
NORTHWEST NORTH DAKOTA

CITY           SKY/WX    TMP DP  RH WIND       PRES   REMARKS
WILLISTON      MOCLDY    53  35  50 N9        29.82R
MINOT          PTCLDY    54  36  50 NW12      29.75R
MINOT AFB      PTCLDY    56  37  50 NW14      29.74R
$$

NDZ018>021-031>035-040>046-030600-
SOUTHWEST NORTH DAKOTA

CITY           SKY/WX    TMP DP  RH WIND       PRES   REMARKS
BISMARCK       MOCLDY    60  34  37 N3        29.69R
DICKINSON      MOCLDY    55  32  41 N9        29.75R
GARRISON         N/A     51  37  58 N10       29.74R
HETTINGER ARPT PTCLDY    45  31  58 NW5       29.74S
$$

NDZ004>008-012>016-024-026-027-054-030600-
NORTHEAST NORTH DAKOTA

CITY           SKY/WX    TMP DP  RH WIND       PRES   REMARKS
GRAND FORKS    CLEAR     50  43  77 CALM      29.59S
GRND FRKS AFB  PTCLDY    46  42  85 NW8       29.60R
DEVILS LAKE    PTCLDY    57  36  44 N14       29.65R
$$

NDZ022-023-025-028>030-036>039-047>053-030600-
SOUTHEAST NORTH DAKOTA

CITY           SKY/WX    TMP DP  RH WIND       PRES   REMARKS
FARGO          PTCLDY    63  51  65 S12       29.60S
JAMESTOWN      MOCLDY    54  36  50 NW6       29.65S
$$




USA.gov is the U.S. government's official web portal to all federal, state and local government web resources and services.